Location: Wien
(48.2082°N, 16.3738°E)
Time: 03:37:44
(UTC+01:00)

DELFI C3 - Visible Passes

Search period start: 23 March 2019 00:00
Search period end: 02 April 2019 01:00
Orbit: 537 x 555 km, 97.5° (Epoch: 22 March)

Date Brightness Start Highest point End Pass type
(mag) Time Alt. Az. Time Alt. Az. Time Alt. Az.
23 Mar ? 19:26:01 21° E 19:27:23 26° ENE 19:30:41 10° N visible
23 Mar ? 21:01:38 28° WSW 21:02:00 29° W 21:05:25 10° NW visible
24 Mar ? 19:20:21 18° E 19:21:57 24° ENE 19:25:05 10° NNE visible
24 Mar ? 20:55:59 31° WSW 20:56:29 32° W 21:00:02 10° NNW visible
25 Mar ? 19:14:42 16° E 19:16:31 21° ENE 19:19:29 10° NNE visible
25 Mar ? 20:50:19 34° WSW 20:50:59 37° W 20:54:38 10° NNW visible
26 Mar ? 19:09:03 13° E 19:11:04 19° ENE 19:13:50 10° NNE visible
26 Mar ? 20:44:40 37° SW 20:45:28 43° W 20:49:12 10° NNW visible
27 Mar ? 19:03:23 11° E 19:05:38 17° ENE 19:08:10 10° NNE visible
27 Mar ? 20:39:01 39° SW 20:39:57 49° W 20:43:45 10° NNW visible
28 Mar ? 18:57:57 10° E 19:00:12 15° ENE 19:02:27 10° NNE visible
28 Mar ? 20:33:21 40° SSW 20:34:27 57° W 20:38:18 10° NNW visible
29 Mar ? 18:52:49 10° E 18:54:46 13° ENE 18:56:42 10° NNE visible
29 Mar ? 20:27:41 40° S 20:28:57 66° W 20:32:50 10° NNW visible
30 Mar ? 20:22:01 38° S 20:23:26 76° WSW 20:27:21 10° NNW visible
31 Mar ? 21:16:21 35° SSE 21:17:55 87° WSW 21:21:51 10° NNW visible
01 Apr ? 21:10:42 32° SSE 21:12:25 81° ENE 21:16:20 10° N visible
